Tracking 18980 objects as of 21-Feb-2018
HD Live streaming from Space Station
objects crossing your sky now

FENGYUN 1C DEB

Track FENGYUN 1C DEB now!
10-day predictions


NORAD ID: 30966
Int'l Code: 1999-025BBG
Perigee: 610.1 km
Apogee: 733.3 km
Inclination: 99.1 °
Period: 98.0 minutes
Semi major axis: 7042 km
RCS: 0.0111 m2 (small)
Launch date: May 10, 1999
Source: People's Republic of China (PRC)
Launch site: Taiyaun Space Center, China (TSC)

Note: This is SATELLITE DEBRIS
aabbcc
Your satellite tracking list
Your tracking list is empty




NASA's NSSDC Master Catalog

Two Line Element Set (TLE):
1 30966U 99025BBG 18050.19574253 +.00001949 +00000-0 +32473-3 0  9994
2 30966 099.1256 035.4303 0087476 136.9151 280.9096 14.68915729580283
Source of the keplerian elements: AFSPC